Back to catalog

SPARTAN

AliveSciencePO
NORAD 48964·PAYLOAD·🇧🇬 Bulgaria

Launched Jun 30, 2021 from Cape Canaveral Space Force Station

Loading…

Next Passes (next 24 hours)

TLE

FreshSource: Space-Track

Epoch: Sep 13, 2026, 12:58 UTC

1 48964U 21059CP  26256.54062044  .00482381  11813-3  56158-3 0  9995
2 48964  97.6587 108.5303 0001839 237.0489 123.0617 16.08830937291972

Track SPARTAN in real time with AllMySat

Download on the App Store